CW6344 Weather Reports


time (UTC)temp
C
wind
direction
speed
KPH
gust
KPH
rain 1hr
cm
rain 24hr
cm
rain mn
cm
humidity
%
barometer
mb
20260902135439 26 186 0.0 1.6 0.00 0.00 0.00 84 1018.1
20260902134439 26 284 0.0 0.0 0.00 0.00 0.00 84 1017.9
20260902133439 26 336 1.6 3.2 0.00 0.00 0.00 84 1017.8
20260902132439 26 350 0.0 0.0 0.00 0.00 0.00 86 1017.6
20260902130439 26 347 0.0 0.0 0.00 0.00 0.00 87 1017.5
20260902125439 26 347 0.0 1.6 0.00 0.00 0.00 87 1017.5
20260902124439 26 348 0.0 0.0 0.00 0.00 0.00 88 1017.4
20260902123439 26 348 0.0 0.0 0.00 0.00 0.00 88 1017.5
20260902122439 26 343 0.0 0.0 0.00 0.00 0.00 90 1017.5
20260902121439 26 343 0.0 0.0 0.00 0.00 0.00 90 1017.4
20260902120509 25 343 0.0 0.0 0.00 0.00 0.00 91 1017.4
20260902115439 25 343 0.0 0.0 0.00 0.00 0.00 92 1017.3
20260902114439 25 343 0.0 0.0 0.00 0.00 0.00 92 1017.3
20260902113439 25 343 0.0 0.0 0.00 0.00 0.00 92 1017.3
20260902112439 25 343 0.0 0.0 0.00 0.00 0.00 92 1017.2
20260902111439 24 138 0.0 0.0 0.00 0.00 0.00 92 1017.1
20260902110439 24 138 0.0 0.0 0.00 0.00 0.00 92 1017.0
20260902105439 24 292 0.0 0.0 0.00 0.00 0.00 92 1016.9
20260902104439 24 231 0.0 0.0 0.00 0.00 0.00 92 1016.8
20260902103439 24 32 0.0 0.0 0.00 0.00 0.00 92 1016.9
20260902102439 24 32 0.0 0.0 0.00 0.00 0.00 92 1016.8
20260902101439 24 32 0.0 0.0 0.00 0.00 0.00 92 1016.6
20260902100439 24 32 0.0 0.0 0.00 0.00 0.00 92 1016.6
20260902094509 24 32 0.0 0.0 0.00 0.00 0.00 91 1016.5
20260902093439 24 32 0.0 0.0 0.00 0.00 0.00 91 1016.5
20260902092439 24 32 0.0 0.0 0.00 0.00 0.00 91 1016.5
20260902090439 25 32 0.0 0.0 0.00 0.00 0.00 91 1016.6
20260902085439 25 32 0.0 0.0 0.00 0.00 0.00 90 1016.5
20260902084439 25 32 0.0 0.0 0.00 0.00 0.00 90 1016.5
20260902083439 25 32 0.0 0.0 0.00 0.00 0.00 89 1016.4
20260902082439 25 32 0.0 0.0 0.00 0.00 0.00 89 1016.3
20260902080439 25 32 0.0 0.0 0.00 0.00 0.00 88 1016.2
20260902075439 25 32 0.0 0.0 0.00 0.00 0.00 88 1016.2
20260902074439 25 32 0.0 0.0 0.00 0.00 0.00 87 1016.3
20260902073439 25 32 0.0 0.0 0.00 0.00 0.00 87 1016.2
20260902072439 25 32 0.0 0.0 0.00 0.00 0.00 87 1016.2
20260902071439 25 32 0.0 0.0 0.00 0.00 0.00 89 1016.3
20260902070439 25 360 0.0 0.0 0.00 0.00 0.00 88 1016.0
20260902064439 25 360 0.0 0.0 0.00 0.00 0.00 87 1016.0
20260902063439 25 360 0.0 0.0 0.00 0.00 0.00 87 1016.1
20260902062439 25 360 0.0 0.0 0.00 0.00 0.00 86 1016.1
20260902060509 26 360 0.0 0.0 0.00 0.00 0.00 85 1016.0
20260902055439 26 360 0.0 0.0 0.00 0.00 0.00 86 1015.9
20260902054439 26 360 0.0 0.0 0.00 0.00 0.00 86 1015.9
20260902052439 26 360 0.0 0.0 0.00 0.00 0.00 85 1015.8
20260902050440 26 360 0.0 0.0 0.00 0.00 0.00 83 1015.9
20260902044439 26 360 0.0 0.0 0.00 0.00 0.00 83 1015.8
20260902043440 26 360 0.0 0.0 0.00 0.00 0.00 84 1015.9
20260902042439 26 360 0.0 0.0 0.00 0.00 0.00 83 1015.9
20260902041439 26 360 0.0 0.0 0.00 0.00 0.00 84 1016.0
20260902040439 26 360 0.0 0.0 0.00 0.00 0.00 84 1015.9
20260902035440 26 360 0.0 0.0 0.00 0.00 0.00 83 1015.6
20260902034440 26 360 0.0 0.0 0.00 0.00 0.00 84 1015.4
20260902033440 26 360 0.0 0.0 0.00 0.00 0.00 84 1015.3
20260902032509 27 360 0.0 0.0 0.00 0.00 0.00 83 1015.3
20260902030440 27 360 0.0 0.0 0.00 0.00 0.00 83 1015.0
20260902025440 27 17 0.0 0.0 0.00 0.00 0.00 84 1015.0
20260902024440 27 17 0.0 0.0 0.00 0.00 0.00 82 1015.0
20260902023440 27 17 0.0 0.0 0.00 0.00 0.00 82 1015.1
20260902022510 27 17 0.0 0.0 0.00 0.00 0.00 84 1015.1
20260902021440 27 17 0.0 0.0 0.00 0.00 0.00 83 1015.0
20260902020440 27 17 0.0 0.0 0.00 0.00 0.00 84 1015.1
20260902015440 27 17 0.0 0.0 0.00 0.00 0.00 84 1014.9
20260902014440 27 17 0.0 0.0 0.00 0.00 0.00 84 1015.0
20260902012440 27 17 0.0 0.0 0.00 0.00 0.00 84 1014.9
20260902011440 27 17 0.0 0.0 0.00 0.00 0.00 83 1014.7
20260902010440 27 17 0.0 0.0 0.00 0.00 0.00 83 1014.7
20260902004440 28 17 0.0 0.0 0.00 0.00 0.00 81 1014.3
20260902003440 28 17 0.0 0.0 0.00 0.00 0.00 81 1013.9
20260902002540 28 17 0.0 0.0 0.00 0.00 0.00 80 1013.9
20260902000440 28 17 0.0 0.0 0.00 0.00 0.00 80 1013.9
20260901235440 28 17 0.0 0.0 0.00 0.00 0.00 79 1014.0
20260901234440 28 17 0.0 0.0 0.00 0.00 0.00 78 1014.0
20260901233440 28 17 0.0 0.0 0.00 0.00 0.00 78 1014.1
20260901232440 28 5 0.0 0.0 0.00 0.00 0.00 80 1014.1
20260901230440 28 207 0.0 0.0 0.00 0.00 0.00 78 1014.2
20260901225440 30 207 0.0 0.0 0.00 0.00 0.00 76 1014.2
20260901224440 30 207 0.0 0.0 0.00 0.00 0.00 74 1014.3
20260901223440 30 207 0.0 0.0 0.00 0.00 0.00 74 1014.5
20260901222440 30 207 0.0 0.0 0.00 0.00 0.00 76 1014.4
20260901221440 31 207 0.0 0.0 0.00 0.00 0.00 71 1014.4
20260901220440 31 207 0.0 0.0 0.00 0.00 0.00 70 1014.5
20260901214440 31 239 0.0 1.6 0.00 0.00 0.00 71 1014.7
20260901213440 32 256 0.0 0.0 0.00 0.00 0.00 70 1014.7
20260901212540 32 259 0.0 1.6 0.00 0.00 0.00 67 1014.7
20260901211440 32 224 0.0 3.2 0.00 0.00 0.00 65 1014.7
20260901210440 32 258 0.0 4.8 0.00 0.00 0.00 64 1014.7
20260901205440 32 259 0.0 3.2 0.00 0.00 0.00 66 1014.7
20260901204440 33 259 0.0 0.0 0.00 0.00 0.00 65 1014.8
20260901202440 32 242 0.0 1.6 0.00 0.00 0.00 68 1014.9
20260901201440 32 210 0.0 1.6 0.00 0.00 0.00 66 1015.0
20260901200510 31 261 0.0 0.0 0.00 0.00 0.00 70 1015.1
20260901195440 31 265 0.0 0.0 0.00 0.00 0.00 71 1015.2
20260901194440 33 265 0.0 3.2 0.00 0.00 0.00 65 1015.4
20260901192510 33 242 0.0 1.6 0.00 0.00 0.00 64 1015.4
20260901190440 32 229 0.0 4.8 0.00 0.00 0.00 68 1015.4
20260901185440 32 193 0.0 0.0 0.00 0.00 0.00 66 1015.5
20260901184440 32 240 0.0 1.6 0.00 0.00 0.00 67 1015.6
20260901183440 33 240 0.0 0.0 0.00 0.00 0.00 63 1015.6
20260901182440 33 193 3.2 3.2 0.00 0.00 0.00 68 1015.6
20260901180440 32 282 0.0 0.0 0.00 0.00 0.00 70 1015.7
20260901175440 32 282 0.0 0.0 0.00 0.00 0.00 69 1015.8
20260901174440 32 282 0.0 0.0 0.00 0.00 0.00 67 1015.8
20260901173440 32 282 0.0 0.0 0.00 0.00 0.00 66 1015.7
20260901172440 32 304 0.0 6.4 0.00 0.00 0.00 69 1015.6
20260901171440 32 246 0.0 3.2 0.00 0.00 0.00 68 1015.7
20260901170510 32 248 0.0 1.6 0.00 0.00 0.00 69 1015.8
20260901165440 32 248 0.0 4.8 0.00 0.00 0.00 68 1016.1
20260901164440 32 275 1.6 3.2 0.00 0.00 0.00 70 1016.2
20260901162440 31 281 0.0 3.2 0.00 0.00 0.00 75 1016.4
20260901161440 31 257 0.0 0.0 0.00 0.00 0.00 75 1016.6
20260901160440 31 257 0.0 1.6 0.00 0.00 0.00 73 1016.6
20260901155440 31 278 0.0 3.2 0.00 0.00 0.00 73 1016.5
20260901154440 32 279 0.0 1.6 0.00 0.00 0.00 71 1016.7
20260901152440 30 223 0.0 1.6 0.00 0.00 0.00 75 1016.7
20260901151440 30 229 1.6 4.8 0.00 0.00 0.00 74 1016.8
20260901150440 30 283 0.0 4.8 0.00 0.00 0.00 74 1016.9
20260901145440 30 232 0.0 3.2 0.00 0.00 0.00 77 1016.9
20260901144440 29 276 0.0 1.6 0.00 0.00 0.00 76 1017.1
20260901143440 30 299 1.6 3.2 0.00 0.00 0.00 77 1016.9
20260901142440 30 197 1.6 3.2 0.00 0.00 0.00 78 1016.9
20260901141440 29 290 0.0 3.2 0.00 0.00 0.00 79 1016.9
20260901140510 28 321 1.6 1.6 0.00 0.00 0.00 81 1017.0